This is the latest recevied weather packets stored in our database for station/object KK4XZ. If no packets are shown the sender has not sent any weather packets the latest 10 day(s).
| Time | Temp. | Humidity | Pressure | Rain* | Wind** | Luminosity | Snow |
|---|---|---|---|---|---|---|---|
| 1777877724 | 12.22° C | 86% | 1018.2 hPa | 0 mm | - | - | - |
| 1777877120 | 12.78° C | 85% | 1018.4 hPa | 0 mm | - | - | - |
| 1777876535 | 12.78° C | 85% | 1018.5 hPa | 0 mm | - | - | - |
| 1777875930 | 13.33° C | 83% | 1018.5 hPa | 0 mm | - | - | - |
| 1777875325 | 13.33° C | 82% | 1018.4 hPa | 0 mm | - | - | - |
| 1777874721 | 13.89° C | 80% | 1018.5 hPa | 0 mm | - | - | - |
| 1777874135 | 13.89° C | 78% | 1018.5 hPa | 0 mm | - | - | - |
| 1777873531 | 14.44° C | 77% | 1018.5 hPa | 0 mm | - | - | - |
| 1777872925 | 14.44° C | 77% | 1018.5 hPa | 0 mm | - | - | - |
| 1777872321 | 15° C | 74% | 1018.6 hPa | 0 mm | - | - | - |
| 1777871736 | 15.56° C | 71% | 1018.6 hPa | 0 mm | - | - | - |
| 1777871131 | 15.56° C | 69% | 1018.5 hPa | 0 mm | - | - | - |
| 1777870527 | 15.56° C | 67% | 1018.6 hPa | 0 mm | - | - | - |
| 1777869921 | 15.56° C | 66% | 1018.7 hPa | 0 mm | - | - | - |
| 1777869317 | 15.56° C | 66% | 1018.6 hPa | 0 mm | - | - | - |
| 1777868732 | 15.56° C | 67% | 1018.7 hPa | 0 mm | - | - | - |
| 1777868127 | 15.56° C | 67% | 1018.8 hPa | 0 mm | - | - | - |
| 1777867523 | 15.56° C | 67% | 1018.6 hPa | 0 mm | - | - | - |
| 1777866917 | 15.56° C | 66% | 1018.8 hPa | 0 mm | - | - | - |
| 1777866333 | 15.56° C | 65% | 1018.8 hPa | 0 mm | - | - | - |
| 1777865728 | 16.11° C | 65% | 1018.7 hPa | 0 mm | - | - | - |
| 1777865123 | 15.56° C | 65% | 1018.8 hPa | 0 mm | - | - | - |
| 1777864518 | 15.56° C | 65% | 1018.8 hPa | 0 mm | - | - | - |
| 1777863933 | 16.11° C | 64% | 1018.8 hPa | 0 mm | - | - | - |
| 1777863328 | 16.11° C | 65% | 1018.8 hPa | 0 mm | - | - | - |
* Rain latest hour (hover to see other rain measurements)
** Current wind speed in m/s (hover to see current wind gust speed)